Chanute, KS

11:08 AM CDT on April 28, 2017 (GMT -0500)
Chanute Martin Johnson

Weather History for KCNU - August, 2014

Change the Weather History Date:

Friday, August 22, 2014

  Actual Average Record
Temperature  
Mean Temperature 88 °F 78 °F  
Max Temperature 100 °F 90 °F 105 °F (1983)
Min Temperature 76 °F 67 °F 51 °F (1949)
Degree Days  
Heating Degree Days 0 0  
Month to date heating degree days 0 0  
Since 1 June heating degree days 1 6  
Since 1 July heating degree days 1 0  
Cooling Degree Days 23 13  
Month to date cooling degree days 314 320  
Year to date cooling degree days 1114 1194  
Since 1 June cooling degree days 922 1061  
Growing Degree Days 37 (Base 50)    
Moisture  
Dew Point 69 °F    
Average Humidity 61    
Maximum Humidity 82    
Minimum Humidity 39    
Precipitation  
Precipitation 0.00 in 0.11 in 4.60 in (1985)
Month to date precipitation 1.36 2.65  
Year to date precipitation 20.48 29.45  
Sea Level Pressure  
Sea Level Pressure 29.91 in    
Wind  
Wind Speed 12 mph (South)    
Max Wind Speed 24 mph    
Max Gust Speed 30 mph    
Visibility 10 miles    
Events Thunderstorm    
T = Trace of Precipitation, MM = Missing Value Source: NWS Daily Summary

Daily Weather History Graph

Daily Weather History Graph

Search for Another Location

Airport or City:

Trip Planner

Search our weather history database for the weather conditions in past years. The results will help you decide how hot, cold, wet, or windy it might be!

Date:

Astronomy

Aug. 22, 2014 Rise Set
Actual Time 6:43 AM CDT 8:05 PM CDT
Civil Twilight 6:16 AM CDT 8:32 PM CDT
Nautical Twilight 5:43 AM CDT 9:05 PM CDT
Astronomical Twilight 5:08 AM CDT 9:39 PM CDT
Moon 4:08 AM CDT (8/22) 6:13 PM CDT (8/22)
Length of Visible Light 14h 16m
Length of Day
13h 21m
Waning Crescent, 7% of the Moon is Illuminated
Aug 22
Waning Crescent
Aug 25
New
Sep 2
First Quarter
Sep 8
Full
Sep 15
Last Quarter

Hourly Weather History & Observations

Time (CDT) Temp. Heat Index Dew Point Humidity Pressure Visibility Wind Dir Wind Speed Gust Speed Precip Events Conditions
12:52 AM 81.0 °F 84.9 °F 71.1 °F 72% 29.91 in 10.0 mi South 11.5 mph - N/A   Clear
1:52 AM 80.1 °F 83.6 °F 71.1 °F 74% 29.92 in 10.0 mi South 9.2 mph - N/A   Clear
2:52 AM 80.1 °F 83.2 °F 70.0 °F 71% 29.90 in 10.0 mi South 11.5 mph - N/A   Clear
3:52 AM 78.8 °F - 69.8 °F 74% 29.94 in 10.0 mi South 10.4 mph - N/A   Clear
4:52 AM 77.0 °F - 70.0 °F 79% 29.90 in 10.0 mi SSE 11.5 mph - N/A   Clear
5:52 AM 75.9 °F - 69.1 °F 79% 29.91 in 10.0 mi SSE 10.4 mph - N/A   Clear
6:52 AM 75.9 °F - 69.1 °F 79% 29.91 in 10.0 mi South 12.7 mph - N/A   Clear
7:52 AM 78.1 °F - 69.1 °F 74% 29.92 in 9.0 mi South 10.4 mph - N/A   Clear
8:52 AM 82.9 °F 85.8 °F 68.0 °F 60% 29.92 in 10.0 mi SSW 17.3 mph - N/A   Clear
9:52 AM 87.1 °F 89.9 °F 66.9 °F 51% 29.93 in 10.0 mi SSW 16.1 mph 23.0 mph N/A   Clear
10:52 AM 90.0 °F 93.6 °F 68.0 °F 48% 29.92 in 10.0 mi South 17.3 mph 21.9 mph N/A   Clear
11:52 AM 93.0 °F 97.9 °F 69.1 °F 45% 29.92 in 10.0 mi SSW 10.4 mph - N/A   Clear
12:52 PM 96.1 °F 102.9 °F 70.0 °F 43% 29.91 in 10.0 mi South 15.0 mph 21.9 mph N/A   Clear
1:52 PM 96.1 °F 102.9 °F 70.0 °F 43% 29.91 in 10.0 mi South 11.5 mph 20.7 mph N/A   Clear
2:52 PM 99.0 °F 107.0 °F 71.1 °F 40% 29.90 in 10.0 mi South 15.0 mph - N/A   Clear
3:52 PM 98.6 °F 105.5 °F 69.8 °F 39% 29.91 in 10.0 mi SSW 13.8 mph - N/A   Clear
4:52 PM 99.0 °F 105.5 °F 69.1 °F 38% 29.87 in 10.0 mi SSW 17.3 mph - N/A   Partly Cloudy
5:30 PM 84.9 °F 88.2 °F 68.0 °F 57% 29.95 in 10.0 mi WNW 18.4 mph 29.9 mph N/A   Mostly Cloudy
5:44 PM 84.0 °F 86.5 °F 66.9 °F 56% 29.94 in 10.0 mi WNW 18.4 mph 25.3 mph N/A Thunderstorm Scattered Clouds
5:52 PM 84.9 °F 86.6 °F 64.9 °F 51% 29.90 in 10.0 mi WNW 16.1 mph 24.2 mph N/A Thunderstorm Partly Cloudy
5:59 PM 84.0 °F 84.9 °F 63.0 °F 49% 29.92 in 10.0 mi West 10.4 mph 21.9 mph N/A   Partly Cloudy
6:52 PM 84.9 °F 87.6 °F 66.9 °F 55% 29.86 in 10.0 mi SSE 8.1 mph - N/A   Clear
7:52 PM 84.0 °F 87.0 °F 68.0 °F 58% 29.87 in 10.0 mi East 4.6 mph - N/A   Clear
8:52 PM 82.0 °F 85.5 °F 69.1 °F 65% 29.87 in 10.0 mi SE 5.8 mph - N/A   Clear
9:52 PM 82.9 °F 87.5 °F 71.1 °F 67% 29.88 in 10.0 mi SSE 8.1 mph - N/A   Clear
10:52 PM 82.9 °F 88.0 °F 72.0 °F 69% 29.89 in 10.0 mi South 8.1 mph - N/A   Clear
11:52 PM 82.0 °F 86.7 °F 72.0 °F 71% 29.89 in 10.0 mi South 9.2 mph - N/A   Clear